Haikou, China

11:14 AM CST on Augusti 15, 2018 (GMT +0800)
Haikou | | Change Station

Elev 210 ft 20.00 °N, 110.25 °E | Updated 14 minutes ago

Regn
Regn
79 °F
Feels Like 79 °F
N
11
Vind Växlande Vind from V/SV

Idag
High -- | Low -- °F
--% Chance of Precip.
Yesterday
High -- | Low -- °F
Precip. -- tum
Lufttryck 29.44 tum
Sikt 5.0 miles
Molnigt Few 1000 ft
Växlande molnighet 3300 ft
Mestadels molnigt 4000 ft
Daggpunkt 77 °F
Luftfuktighet 94%
Rainfall 0.00 tum
Snow Depth Not available.
6:19 AM 7:08 PM
Första kvarteret, 19% visible
METAR ZJHK 150300Z 25005MPS 210V270 8000 -TSRA FEW010 SCT033CB BKN040 26/25 Q0997 NOSIG
Lufttryck 29.44 tum
Sikt 5.0 miles
Molnigt Few 1000 ft
Växlande molnighet 3300 ft
Mestadels molnigt 4000 ft
Daggpunkt 77 °F
Luftfuktighet 94%
Rainfall 0.00 tum
Snow Depth Not available.
6:19 AM 7:08 PM
Första kvarteret, 19% visible
METAR ZJHK 150300Z 25005MPS 210V270 8000 -TSRA FEW010 SCT033CB BKN040 26/25 Q0997 NOSIG

Get Severe Weather Alerts

Thanks for signing up!

Be on the lookout for a verification email in your inbox.

You'll start receiving the daily forecast at 6 AM.

×

10-Day Weather Forecast

No radar image for this location.
×

Almanac

Astronomi

Aug. 15, 2018 Rise Set
Actual Time
Civil Twilight
Nautical Twilight
Astronomical Twilight
Månen
Length Of Visible Light
Dagens längd
Tomorrow will be .
, % of the Moon is Illuminated

Today's Extremes

Country Highs Country Lows

Community

WunderPhotos

Category 6

Welcome to Category 6. This is the collective home for Weather Underground's featured writeups by Dr. Jeff Masters (right), Bob Henson (left), Chris Burt, and other regular contributors.

Nearby

Air Quality

  Air Quality AQ Index Pollutant
Not available.

Snödjup

Station Depth Elevation

Earthquake Activity

Stad Distance Mag. Time & Date
Minimum magnitude displayed is 2.5.

Coastal Water Temperatures

Plats Temperatur

Stations

Nearby Weather Stations

Station Location Temp Vindavkylning Daggpunkt Luftfuktighet Vind Precip. Elev Uppdaterad Type